Location: Dannhausen
(51.8650°N, 10.1026°E)
Time: 07:52:35
(UTC+00:00)

Cosmos 962 Rocket - Pass Details

Date: 09 April 2020
Orbit: 950 x 999 km, 82.9° (Epoch: 01 June)

Event Time Altitude Azimuth Distance (km) Brightness Sun altitude
Rises 19:17:50 0° 349° (N) 3,661 8.1 -10.9°
Reaches altitude 10° 19:20:21 10° 351° (N) 2,705 7.4 -11.3°
Maximum altitude 19:26:33 84° 80° (E) 966 4.4 -12.1°
Drops below altitude 10° 19:32:40 10° 169° (S) 2,671 6.4 -12.9°
Enters shadow 19:34:12 - 170° (S) 3,253 6.8 -13.1°
